Regional Weather Roundup
Issued by NWS

Home | Current Version | Previous Version | Text Only | Print | Product List | Glossary On
Versions: 1 2 3 4 5 6 7 8 9 10 11 12 13 14 15 16 17 18 19 20 21 22 23 24 25 26 27 28 29 30 31 32 33 34 35 36 37 38 39 40 41 42 43 44 45 46 47 48 49 50
000
ASUS43 KMPX 231210
RWRMN
WEATHER ROUNDUP FOR MINNESOTA
NATIONAL WEATHER SERVICE TWIN CITIES/CHANHASSEN MN
700 AM CDT SAT AUG 23 2014


NOTE: "FAIR" INDICATES FEW OR NO CLOUDS BELOW 12,000 FEET WITH NO
SIGNIFICANT WEATHER AND/OR OBSTRUCTIONS TO VISIBILITY. N/A MEANS
CURRENT SKY AND/OR WEATHER CONDITIONS ARE NOT AVAILABLE.

MNZ060>063-068>070-231300-
   Twin Cities Metro

CITY           SKY/WX    TMP DP  RH WIND       PRES   REMARKS
TWIN CITIES    CLOUDY    70  68  93 NE7       30.00S
6HR MIN TEMP:  69; 6HR MAX TEMP:  70;

ST PAUL        CLOUDY    70  67  90 NE10      30.00S
CRYSTAL        CLOUDY    70  66  87 NE6       29.99S
BLAINE         CLOUDY    70  70 100 CALM      30.01S FOG
LAKEVILLE      CLOUDY    66  66 100 NE5       29.99S FOG
EDEN PRAIRIE   CLOUDY    70  68  93 NE6       29.98F FOG
6HR MIN TEMP:  68; 6HR MAX TEMP:  70;

SOUTH ST PAUL  CLOUDY    70  67  90 NE5       29.99F
LAKE ELMO      CLOUDY    68  68 100 NE5       30.01F
$$
MNZ001>005-007-008-013>017-022>024-027-028-231300-
   Northwest Minnesota

CITY           SKY/WX    TMP DP  RH WIND       PRES   REMARKS
BEMIDJI        CLOUDY    66  66  99 E5        30.06R FOG
HALLOCK        CLOUDY    59  57  94 N12       30.09S
ROSEAU         CLOUDY    61  55  82 N8        30.09R
WARROAD        FOG       61  57  88 NW6       30.09R VSB 1/4
THIEF RVR FALL CLOUDY    64  63  94 NE8       30.06R VSB 1/2
CROOKSTON        N/A     63  63 100 N5        30.05S
FOSSTON        CLOUDY    64  63  94 CALM      30.05S FOG
DETROIT LAKES  CLOUDY    68  66  94 E6        30.04F FOG
MOORHEAD       FOG       66  66 100 N5        30.02S VSB 1/2
PARK RAPIDS    CLOUDY    67  66  97 SE6       30.04S
MAHNOMEN       CLOUDY    67  67  98 CALM      30.04S
$$
MNZ006-009>011-018-025>026-231300-
   North Central Minnesota

CITY           SKY/WX    TMP DP  RH WIND       PRES   REMARKS
BAUDETTE       CLOUDY    64  63  96 NE5       30.07S
FLAG ISLAND    CLOUDY    66  64  94 NE6       30.07R
INTL FALLS     FOG       64  64 100 NE5       30.07R VSB 1/4
6HR MIN TEMP:  56; 6HR MAX TEMP:  64;

WASKISH        FOG       64  63  94 CALM      30.07R VSB 1/4
BIG FORK       CLOUDY    66  64  94 SE3       30.08R FOG
LONGVILLE      CLOUDY    64  63  94 CALM      30.06R FOG
GRAND RAPIDS   CLOUDY    63  61  94 SE5       30.09R
CRANE LAKE     CLOUDY    63  61  94 CALM      30.09S FOG
ORR            CLOUDY    63  61  94 CALM      30.05S
COOK           CLOUDY    64  64 100 CALM      30.08R FOG
WALKER         CLOUDY    66  65  97 CALM      30.05R
$$
MNZ012-019>021-037-231300-
   Northeast Minnesota

CITY           SKY/WX    TMP DP  RH WIND       PRES   REMARKS
DULUTH         CLOUDY    63  59  87 E7        30.07R
6HR MIN TEMP:  60; 6HR MAX TEMP:  63;

ELY            CLOUDY    64  63  94 CALM      30.09R
HIBBING        CLOUDY    65  62  90 E3        30.08R
EVELETH        FOG       63  61  94 CALM      30.09R VSB 1/4
DULUTH HARBOR  CLOUDY    63  61  94 NE9       30.07R
TWO HARBORS    CLOUDY    63  57  82 NE3       30.05R
SILVER BAY     PTCLDY    61  61 100 NE6       30.06R
GRAND MARAIS     N/A     63  60  90 NE5       30.06S
G MARAIS ARPRT CLOUDY    61  55  82 N6        30.11S
$$
MNZ029>031-032-039>041-046>048-054>057-064-231300-
   West Central Minnesota

CITY           SKY/WX    TMP DP  RH WIND       PRES   REMARKS
FERGUS FALLS   CLOUDY    70  66  88 E3        30.01R
WHEATON        CLOUDY    64  64 100 E7        30.01S
MORRIS         LGT RAIN  70  68  94 E6        30.00S
ALEXANDRIA     CLOUDY    67  65  93 E6        30.04R
ELBOW LAKE     CLOUDY    68  67  96 SE7       30.02R
WADENA         CLOUDY    64  64 100 E3        30.04S FOG
GLENWOOD       CLOUDY    66  64  94 CALM      30.04R FOG
APPLETON       LGT RAIN  72  66  83 SE7       30.00S
BENSON         LGT RAIN  68  66  94 SE5       30.01S
ORTONVILLE     DRIZZLE   70  66  88 SE5       29.99F
MADISON        LGT RAIN  72  70  94 SE6       29.99F
WILLMAR        FAIR      70  66  88 NE3       30.02S
$$
MNZ033>034-036-042>043-049>051-058-059-231300-
   Central Minnesota

CITY           SKY/WX    TMP DP  RH WIND       PRES   REMARKS
ST CLOUD       CLOUDY    66  63  90 E5        30.03S
6HR MIN TEMP:  66; 6HR MAX TEMP:  69;

SAUK CENTRE    CLOUDY    65  64  98 E7        30.03S FOG
PAYNESVILLE    CLOUDY    63  63 100 N5        30.03S FOG
AITKIN         MOCLDY    63  57  82 CALM      30.05F
PINE RIVER     CLOUDY    64  64 100 CALM      30.08S
BRAINERD       CLOUDY    62  62 100 E6        30.05S
STAPLES        CLOUDY    64  64 100 E3        30.04S
LONG PRAIRIE   CLOUDY    63  63 100 NE6       30.04S FOG
LITTLE FALLS   CLOUDY    61  61 100 NE3       30.04S
LITCHFIELD     CLOUDY    68  68 100 NE3       30.01F FOG
BUFFALO        CLOUDY    66  64  93 N6        30.02S FOG
MAPLE LAKE     CLOUDY    67  66  97 NE6       30.02S FOG
$$
MNZ037-044-045-052-053-231300-
   East Central Minnesota

CITY           SKY/WX    TMP DP  RH WIND       PRES   REMARKS
PRINCETON      CLOUDY    64  63  94 NE5       30.04R
MORA           CLOUDY    61  59  94 CALM      30.05F FOG
CAMBRIDGE      CLOUDY    66  57  72 NE5       30.02R HAZE
RUSH CITY      CLOUDY    63  62  96 NE3       30.04R FOG
MOOSE LAKE     CLOUDY    61  59  94 NE3       30.05R
HINCKLEY       CLOUDY    63  63 100 N5        30.05S
CLOQUET        CLOUDY    63  59  88 CALM      30.07R
MCGREGOR       CLOUDY    61  59  94 NE5       30.08R
$$
MNZ071>073-080-081-089-090-097-098-231300-
   Southwest Minnesota

CITY           SKY/WX    TMP DP  RH WIND       PRES   REMARKS
MONTEVIDEO     CLOUDY    68  68 100 SE5       30.01S
GRANITE FALLS  CLOUDY    68  68  98 CALM      30.02S FOG
CANBY          LGT RAIN  69  67  96 E7        29.99F
MARSHALL       CLOUDY    68  64  88 S9        30.01R
REDWOOD FALLS  CLOUDY    68  67  96 CALM      29.99S FOG
OLIVIA         CLOUDY    70  68  94 NE5       29.99S FOG
PIPESTONE      LGT RAIN  68  64  88 E9G23     29.90F
WINDOM         TSTM      68  66  94 CALM      30.03R
WORTHINGTON      N/A     70  12  11 NE20      29.92F
JACKSON        TSTM      68  66  94 NE5       30.00R
TRACY          RAIN      68  67  97 SW7       30.04R
SLAYTON        RAIN      68  67  98 NE14G21   29.94F
$$
MNZ065>067-074>077-082>085-091>093-231300-
   South Central Minnesota

CITY           SKY/WX    TMP DP  RH WIND       PRES   REMARKS
MANKATO        CLOUDY    70  64  83 NE8       29.98S
NEW ULM        CLOUDY    66  66 100 NE3       29.99R FOG
ST JAMES       LGT RAIN  68  66  94 NW3       30.00R
FAIRMONT       CLOUDY    61  61 100 MISG      29.98R
GLENCOE        CLOUDY    68  65  92 NE3       29.99S FOG
FARIBAULT      HAZE      72  66  83 NE5       29.99S VSB 3/4
OWATONNA       FOG       70  66  88 NE5       29.98S VSB 1/2
WASECA         FOG       66  63  88 NE6       29.99S VSB 1/2
ALBERT LEA     FOG       68  68 100 NE3       29.97S VSB 1/2
$$
MNZ078>079-086>088-094>096-231300-
   Southeast Minnesota

CITY           SKY/WX    TMP DP  RH WIND       PRES   REMARKS
ROCHESTER      FOG       69  67  93 NE7       29.99R VSB<1/4
6HR MIN TEMP:  68; 6HR MAX TEMP:  70;

RED WING       CLOUDY    70  68  94 E6        29.97F
STANTON        CLOUDY    70  68  92 NE6       29.97F FOG
DODGE CENTER   DRZL/FOG  70  68  94 NE7       29.98S VSB 1/4
WINONA         CLOUDY    72  70  94 CALM      29.96F FOG
AUSTIN         FOG       68  68 100 NE7       29.96S VSB 1/2
PRESTON        FOG       68  68 100 NE5       29.98S VSB<1/4
$$
ABBREVIATIONS USED IN REMARKS
   TC - TEMPERATURES IN CELSIUS
  WCI - WIND CHILL INDEX
   HX - HEAT INDEX
  VSB - VISIBILITY
$$


USA.gov is the U.S. government's official web portal to all federal, state and local government web resources and services.